Theta_e
318 318 318 315 315 316 316 315 312 310 309 309 309 308 311 312 313 314 315 316 317 316 316 318 320 322 319 319 322 320 322 323 323 325 323 324 327 328 331 329 330 329 329 328 328 333 336 331 336 337 333 336 338 341
317 319 316 314 316 316 315 312 310 309 309 309 309 308 310 311 312 313 314 314 316 316 316 320 321 322 322 320 316 314 319 320 322 327 323 324 328 325 326 332 323 329 327 331 329 330 327 325 331 330 328 332 330 333
317 317 314 315 316 316 313 311 310 308 309 309 308 308 308 310 311 312 313 314 315 314 316 315 319 321 320 322 321 315 314 317 319 317 319 321 327 320 325 322 325 323 322 328 328 328 327 326 325 324 324 324 323 323
317 315 314 315 315 314 313 311 309 309 308 309 307 307 308 309 311 311 312 312 316 314 318 316 319 318 320 320 322 321 316 315 314 314 317 320 324 319 321 321 321 321 323 323 326 326 326 326 325 324 324 323 323 323
315 314 314 315 314 313 311 310 308 308 308 308 307 307 308 310 310 312 315 316 315 316 317 315 315 318 319 319 319 318 316 312 314 317 318 320 316 318 315 318 319 319 321 324 327 324 324 324 324 323 325 325 324 324
314 314 314 315 313 312 311 309 308 308 308 307 306 307 308 310 311 314 316 315 314 314 313 314 311 316 319 316 316 314 314 312 312 316 316 315 315 319 322 322 319 317 318 318 324 319 322 323 324 324 324 324 324 324
314 314 315 313 312 311 310 308 307 308 307 306 306 307 309 310 311 312 317 317 316 314 314 316 314 313 315 315 313 312 313 312 314 314 317 316 317 316 318 323 321 322 321 321 322 323 325 325 325 324 324 324 324 324
314 314 313 312 311 309 308 307 307 306 305 306 306 308 310 311 311 314 316 316 314 314 312 317 316 314 314 315 317 310 315 313 314 316 316 319 317 317 323 319 318 320 323 323 322 321 322 321 321 323 323 323 324 323
313 313 312 310 309 308 306 306 305 305 305 306 308 310 312 313 313 317 314 314 314 314 317 316 318 319 312 312 314 316 314 319 314 319 317 318 319 323 321 320 322 321 323 323 322 322 322 323 322 324 324 324 324 322
313 312 310 309 307 306 306 305 304 304 305 307 311 315 315 317 315 314 315 314 314 312 310 314 312 318 313 313 317 319 316 318 323 320 317 320 320 318 316 317 318 320 320 320 324 325 324 324 324 325 324 321 321 321
310 309 307 306 305 305 305 304 304 305 308 312 311 313 315 317 316 313 317 318 314 318 312 314 311 314 311 317 318 316 320 319 326 322 322 319 322 320 321 321 319 316 318 320 322 323 323 323 322 322 323 322 322 322
307 306 304 304 305 305 304 304 304 307 310 310 311 312 314 314 313 321 318 317 318 319 315 316 316 313 313 312 317 316 322 318 326 319 324 326 320 322 323 323 321 321 324 325 325 324 325 324 324 323 321 320 319 319
303 303 304 304 305 304 304 303 304 308 310 312 311 314 315 315 320 322 323 320 319 317 316 317 320 316 316 313 315 318 323 322 317 321 324 323 322 323 322 323 324 325 325 324 324 324 323 322 321 319 318 317 316 316
303 303 304 304 304 304 303 304 304 308 310 313 314 312 317 318 318 319 320 319 317 317 317 316 319 318 316 319 317 322 318 322 325 325 324 321 324 324 324 326 326 325 324 323 322 321 319 317 316 316 315 315 315 314
303 303 303 303 303 303 303 303 305 310 310 312 316 318 315 315 314 314 314 315 315 315 319 321 319 319 320 323 320 321 327 329 325 325 322 322 324 325 326 326 325 324 322 320 319 317 316 315 314 313 312 311 311 311
302 302 302 302 303 303 303 304 309 311 310 310 313 316 314 314 317 314 318 318 315 317 315 316 321 324 322 320 326 326 327 328 325 323 323 321 323 324 324 324 323 322 320 318 316 315 314 313 312 311 310 311 310 310
301 301 302 302 302 303 305 308 309 309 311 313 313 308 309 311 313 313 313 313 312 316 321 316 323 323 318 322 324 321 325 324 325 324 320 319 322 323 321 321 322 320 318 316 315 314 313 312 311 309 308 308 309 309
303 303 301 302 302 306 308 309 310 311 313 313 311 308 307 308 311 309 307 306 313 315 317 321 318 321 322 323 323 321 319 319 318 316 316 317 316 318 319 318 322 320 317 316 315 313 312 310 308 307 308 308 308 307
304 302 302 302 305 306 307 308 308 312 311 308 306 304 306 306 305 306 307 307 309 312 316 318 321 319 317 314 317 316 316 318 319 315 316 316 317 317 317 320 321 319 317 316 314 312 311 310 309 308 307 306 306 305
302 302 302 304 305 307 308 309 307 307 307 305 303 305 305 306 306 306 308 307 308 311 315 317 317 316 314 313 313 315 314 312 313 315 315 314 317 317 319 321 320 318 315 315 313 312 311 309 308 307 306 306 305 305
302 302 303 304 304 306 305 306 305 304 304 305 304 304 306 303 306 307 307 305 309 310 313 311 312 312 310 311 314 315 315 313 313 314 313 313 314 317 318 320 321 316 314 312 311 311 309 308 307 306 306 305 305 304
303 303 303 304 306 306 302 303 304 306 306 306 306 306 307 308 307 306 304 308 308 308 309 309 309 310 310 310 311 314 317 318 317 316 316 315 314 314 315 317 319 316 314 313 312 311 310 309 308 307 307 306 307 307
305 305 305 306 306 302 301 303 307 305 308 307 307 310 309 309 307 304 308 305 306 304 307 308 310 312 311 313 313 313 314 314 313 313 315 315 315 316 315 316 317 317 316 316 314 312 310 310 309 308 308 308 309 309
304 305 306 307 305 304 304 308 304 306 307 309 309 312 311 309 307 310 312 309 307 305 305 306 307 307 307 309 309 310 313 313 313 314 315 315 314 316 317 317 318 317 319 319 317 315 312 311 310 310 309 310 310 310
298 304 305 303 304 306 309 310 312 312 315 313 312 311 310 308 312 313 314 311 309 311 311 310 307 307 309 309 309 311 313 314 313 314 316 316 317 317 318 319 320 319 319 318 316 316 316 314 313 312 312 312 313 313
306 307 305 309 308 307 311 313 313 313 312 313 313 310 310 312 315 314 312 312 312 313 313 313 314 314 314 313 313 313 317 319 319 317 318 319 319 319 319 319 319 319 320 316 318 318 318 318 317 316 316 317 315 313
306 306 305 303 308 310 310 308 309 311 313 314 311 316 317 319 318 313 311 312 314 315 316 317 318 316 315 315 317 318 318 319 319 319 319 319 319 319 319 317 317 319 320 319 319 320 319 318 318 317 317 316 314 311
306 305 307 307 306 305 309 309 311 311 312 312 316 318 319 319 319 318 316 315 315 316 318 318 318 318 319 319 319 319 319 320 319 319 319 318 319 319 319 318 319 319 319 318 319 319 320 318 315 314 314 314 312 311
308 309 309 310 310 311 312 312 313 313 314 315 317 317 316 315 315 316 316 316 316 318 319 319 319 320 319 320 320 318 319 319 318 317 317 316 316 318 318 318 319 317 316 317 315 315 317 317 314 313 312 311 312 312
310 309 312 314 314 315 314 314 314 313 313 314 314 315 315 316 316 319 318 319 319 319 320 320 320 319 317 318 319 320 320 318 318 316 315 315 316 319 319 319 317 315 316 316 317 315 314 314 314 313 313 313 314 313
313 311 314 315 317 315 314 313 312 314 315 315 315 317 318 317 317 320 320 320 318 317 317 316 316 316 316 316 316 316 317 319 319 319 318 318 319 318 319 319 317 316 315 314 314 314 314 314 315 315 315 314 314 315
315 316 319 322 320 316 315 317 317 318 317 320 320 318 316 317 319 316 321 320 317 317 320 320 320 320 321 320 319 319 320 320 320 319 319 319 319 319 318 318 318 318 317 316 315 315 316 317 317 317 316 315 313 312
319 320 321 321 322 321 319 319 319 320 319 320 318 317 320 320 321 317 320 321 319 319 320 319 318 319 320 319 319 319 319 319 319 319 318 318 318 318 318 318 318 317 316 316 317 317 317 317 317 317 317 316 316 316
Wind_Speed
23 21 21 18 16 14 14 13 12 12 13 11 11 13 13 13 14 14 2 4 3 1 5 3 3 1 2 2 2 3 3 3 3 3 3 3 3 2 1 2 2 4 3 3 2 2 5 2 3 5 5 2 4 4
21 22 18 17 15 13 13 12 11 11 11 10 10 11 11 10 12 12 2 4 8 3 5 5 14 19 8 5 4 2 3 2 4 4 1 3 1 1 3 3 1 1 4 3 5 4 4 4 3 1 3 5 3 4
21 20 17 16 14 13 12 11 11 10 10 9 10 12 9 8 9 10 6 7 2 2 5 4 3 3 8 16 13 3 2 3 1 2 3 2 2 4 3 5 1 1 2 3 3 2 3 4 1 2 3 4 4 3
22 19 17 16 15 12 11 10 10 8 9 9 11 10 8 7 7 9 6 5 2 2 0 5 7 3 3 5 13 9 5 4 5 3 3 2 2 3 3 2 3 4 3 4 1 3 2 3 0 4 4 5 4 3
21 19 17 18 15 12 12 11 9 10 9 9 11 9 8 8 8 9 8 3 2 1 2 5 17 3 6 5 10 10 9 4 2 2 2 3 2 2 1 2 3 4 6 5 6 7 5 4 3 3 5 4 4 4
20 19 18 18 15 14 12 11 10 9 8 9 10 9 8 8 8 1 1 4 8 0 2 3 5 4 6 4 11 8 5 3 3 3 2 2 3 2 2 3 5 4 3 5 4 5 4 3 4 3 5 4 3 2
20 19 20 17 15 14 11 10 9 8 9 10 10 8 8 7 6 2 2 1 7 8 2 4 5 3 4 3 2 2 4 2 3 2 1 2 1 3 2 3 5 5 6 5 4 7 3 3 5 5 5 5 4 2
19 21 20 15 14 12 10 9 8 8 9 10 9 8 7 8 9 4 1 4 10 2 2 0 4 4 6 1 2 2 3 3 3 2 1 2 1 2 2 7 7 4 3 1 7 1 2 2 3 3 2 1 1 3
21 22 18 16 13 11 9 8 6 8 8 8 7 6 2 1 1 1 3 2 2 1 2 2 2 3 4 2 1 3 2 1 2 1 2 3 0 3 7 7 5 6 8 7 3 1 4 4 6 3 3 3 2 4
23 20 18 15 12 10 9 6 6 7 5 5 2 0 1 1 1 1 1 2 3 3 2 2 1 3 2 2 2 2 2 2 1 3 2 2 4 5 3 4 5 4 7 6 5 3 2 2 2 1 1 2 2 3
20 18 16 14 12 11 8 6 4 3 1 1 1 1 1 0 2 3 0 1 1 2 2 3 4 1 1 2 2 0 3 0 1 4 3 1 3 3 7 4 3 6 3 5 5 6 5 3 1 1 2 4 5 7
18 16 15 14 13 11 8 6 4 2 2 2 2 3 2 2 3 1 1 2 3 4 2 3 4 5 2 2 2 1 2 2 3 1 2 2 3 3 4 6 7 8 8 10 12 8 8 9 8 6 6 7 8 10
15 15 15 14 12 11 7 6 4 5 1 1 1 1 2 0 2 5 5 3 2 3 3 2 2 2 1 2 2 2 3 4 1 1 3 3 2 1 3 4 7 8 12 10 8 9 10 9 9 8 7 9 12 13
15 14 13 12 12 10 7 5 5 5 1 1 3 0 3 3 4 4 3 3 3 2 2 2 2 2 1 2 1 3 2 2 0 2 3 2 1 2 2 1 5 4 6 5 6 9 9 9 8 9 10 11 13 13
13 12 12 11 10 8 6 6 8 3 1 1 1 4 5 3 3 4 3 2 3 1 2 2 2 2 2 3 2 2 2 3 3 2 2 3 2 1 2 2 5 4 4 4 5 6 7 8 8 9 12 13 13 13
13 11 8 11 10 8 7 9 5 2 2 1 1 1 2 0 2 3 2 1 2 2 2 3 2 2 1 3 2 4 3 3 2 2 2 2 2 2 3 3 3 5 6 7 7 6 6 9 9 9 10 11 12 13
9 3 11 12 10 9 11 3 2 1 1 2 1 1 1 3 3 2 2 3 4 2 2 3 3 2 2 2 2 3 3 3 3 2 2 4 4 3 4 4 6 8 8 7 7 6 6 7 7 9 8 12 11 13
3 10 15 13 12 11 2 1 1 2 2 2 1 2 2 2 2 3 2 2 4 2 1 1 2 3 3 3 2 3 3 2 2 2 3 3 3 5 6 5 9 9 9 9 7 6 6 7 7 5 7 11 13 16
8 16 15 14 8 2 2 1 1 1 2 1 2 2 2 3 3 4 3 3 1 1 2 1 2 3 3 3 3 3 2 3 3 3 3 4 7 6 7 6 9 11 11 11 8 7 6 4 3 4 7 10 13 16
14 14 13 12 4 2 2 2 1 1 1 2 1 2 2 3 2 2 1 1 1 2 1 2 4 3 4 3 4 3 3 3 3 1 3 3 6 6 6 10 11 13 11 11 10 9 7 4 2 2 5 8 10 12
11 6 5 2 3 3 1 2 0 3 2 2 2 2 3 1 2 2 3 3 2 3 3 4 4 4 6 4 6 4 5 8 5 4 4 3 4 10 8 5 9 15 13 12 10 9 9 8 6 3 1 3 5 7
6 5 2 1 2 1 2 0 2 2 1 2 3 1 2 2 3 3 2 2 3 4 4 4 4 4 3 4 7 14 15 12 15 10 9 7 2 2 5 9 8 9 13 15 15 15 14 12 9 7 5 4 6 9
5 2 2 1 2 3 3 1 1 1 1 2 2 2 3 2 3 1 2 3 4 5 9 8 10 18 10 18 14 12 16 16 8 12 16 17 19 16 15 13 13 14 11 19 21 18 16 14 12 12 8 9 11 13
3 2 2 1 1 2 1 2 2 2 2 2 2 3 3 3 0 1 3 3 3 1 3 6 6 3 1 1 3 6 19 17 17 18 20 14 7 14 19 20 13 17 20 14 22 22 17 16 15 13 12 13 14 14
4 1 1 3 1 1 2 2 3 2 4 5 3 3 3 1 1 3 3 3 2 2 2 2 2 4 4 3 3 12 17 17 12 6 17 19 17 8 8 10 8 7 9 11 13 18 20 18 16 16 15 14 14 15
1 4 5 3 2 3 3 2 3 3 2 2 4 2 0 1 2 4 3 2 2 1 2 1 0 1 2 5 3 2 4 6 7 5 9 9 15 12 6 4 3 6 16 16 17 17 19 19 18 16 15 15 13 11
2 4 4 3 2 2 2 2 1 1 2 2 2 2 2 3 4 3 3 2 2 5 10 11 11 6 4 5 4 5 3 3 6 7 8 8 9 13 12 6 7 11 16 21 23 20 20 19 17 15 14 14 13 11
3 1 4 2 2 2 2 2 2 3 3 2 1 2 2 2 3 2 3 15 22 20 17 10 12 13 13 10 6 4 4 4 2 1 4 5 2 5 6 4 10 6 6 11 16 22 20 16 14 14 14 15 16 13
3 2 3 3 3 4 4 5 3 2 2 2 1 1 2 3 3 5 13 16 20 13 1 4 6 9 8 6 4 5 5 5 5 2 4 2 3 3 5 8 8 5 7 9 9 11 15 16 15 13 14 15 15 12
3 4 2 2 3 4 3 4 2 2 1 3 2 2 2 3 11 12 13 9 6 3 5 6 7 6 5 6 6 6 8 8 10 4 4 3 4 5 5 4 1 3 0 5 10 12 13 13 12 10 11 11 10 11
2 5 3 3 3 3 4 2 2 3 2 3 3 2 3 3 5 3 7 10 10 8 14 11 8 8 11 9 5 3 1 5 9 9 8 7 1 6 9 10 9 5 3 2 4 6 8 9 8 7 6 6 9 12
3 4 2 2 1 2 3 3 3 3 3 2 2 3 2 1 3 3 9 11 10 10 8 6 5 2 1 1 2 1 5 9 12 10 8 8 8 7 9 12 13 11 10 9 7 9 8 5 2 5 6 4 6 6
2 3 3 2 1 2 1 1 0 1 1 1 1 1 1 1 1 3 5 8 6 6 6 5 4 6 8 9 8 8 10 9 9 10 10 8 2 6 7 11 7 12 8 9 11 9 8 11 15 12 7 5 7 9
Wind_Direction
248 250 256 262 270 267 266 272 287 303 312 315 328 341 343 348 354 356 274 37 18 217 279 221 279 331 38 64 107 281 30 345 44 77 146 188 136 237 12 245 216 186 154 196 103 127 239 68 141 160 208 54 124 141
242 248 246 257 256 253 254 269 286 300 305 309 323 338 336 344 351 357 309 325 319 191 252 271 266 268 246 198 148 0 173 197 190 97 70 94 146 83 157 245 2 253 181 191 169 219 270 287 274 194 151 127 133 146
239 239 242 248 241 240 252 268 284 293 302 304 319 330 325 335 344 353 322 338 318 3 301 342 284 290 278 225 220 126 275 190 100 162 146 135 201 130 177 241 247 288 140 107 80 303 332 328 345 81 91 105 118 115
234 230 237 234 228 235 254 267 276 282 289 305 320 326 327 325 331 331 320 305 315 112 39 283 334 317 258 221 218 223 158 97 90 59 95 131 180 165 209 224 178 202 131 138 287 285 317 302 207 118 101 113 133 155
227 227 229 222 221 234 248 265 267 265 284 301 318 319 323 324 324 317 297 189 260 181 231 281 312 318 334 239 186 175 136 100 86 65 87 223 186 122 18 57 260 190 182 163 218 209 164 206 201 162 149 164 162 154
225 225 220 214 220 234 244 260 260 266 279 299 310 309 319 323 326 323 27 159 99 82 92 320 309 317 345 127 141 115 107 97 95 132 205 264 254 111 135 212 261 246 232 177 216 168 177 155 183 162 165 163 147 128
219 216 208 212 222 229 240 250 251 262 280 298 305 305 312 317 311 209 203 121 209 343 79 317 325 301 339 94 54 62 49 90 107 126 184 199 283 88 121 205 274 248 234 195 182 119 59 206 203 197 182 182 179 174
212 206 202 209 215 223 238 238 246 265 284 296 300 302 299 287 286 288 170 235 237 208 82 233 275 347 8 89 117 337 78 34 17 150 55 178 21 62 264 246 265 313 350 231 195 280 195 157 149 176 174 121 214 269
205 200 200 201 209 223 229 221 245 279 288 292 299 301 287 213 214 42 98 108 169 209 179 136 199 246 358 15 92 41 63 92 308 173 242 107 346 223 227 232 255 221 196 210 138 115 113 148 167 179 193 215 271 294
194 192 194 198 201 212 202 209 260 289 282 293 299 127 15 162 145 181 6 23 17 341 47 207 122 265 81 5 37 89 24 138 158 250 99 122 254 261 301 255 249 257 205 135 126 158 119 90 169 222 306 349 300 298
184 185 185 187 188 185 181 226 264 282 170 185 135 201 329 213 166 37 96 120 302 281 195 238 187 217 293 99 164 185 157 138 112 260 140 297 280 279 328 2 319 239 215 159 114 98 91 104 131 350 7 32 7 358
178 178 179 177 180 180 192 219 254 170 120 220 249 303 340 64 42 129 234 309 197 230 220 183 215 196 272 98 101 334 123 62 225 145 92 263 258 297 9 42 48 66 75 67 65 65 71 62 43 37 27 13 356 333
165 167 170 172 172 175 186 215 227 170 188 107 74 96 73 269 159 186 195 232 244 210 219 186 187 176 45 66 71 106 126 219 74 89 227 226 256 52 88 77 65 63 78 70 60 73 74 69 45 33 356 342 334 327
158 161 163 166 170 172 188 212 194 176 131 171 145 207 180 201 235 203 202 206 238 189 180 158 124 161 183 91 137 112 220 96 177 212 235 297 68 118 100 72 104 81 74 77 77 69 56 37 13 3 359 349 343 331
148 154 154 160 166 176 188 192 170 150 136 159 175 210 217 252 266 247 246 264 264 202 120 103 69 105 29 99 26 91 132 242 212 230 243 242 175 155 152 152 116 112 96 86 84 66 51 29 16 8 3 358 353 345
145 138 154 163 166 167 173 159 160 149 105 74 233 286 266 11 305 353 14 301 352 283 125 74 99 86 81 113 127 205 171 219 231 228 232 208 223 196 194 178 135 120 115 110 92 77 49 27 18 6 8 8 357 349
140 115 160 156 158 161 155 151 135 109 242 203 254 251 227 264 253 283 313 330 334 86 116 126 184 159 96 96 226 183 194 192 188 204 208 208 195 196 181 188 168 156 145 132 109 84 68 55 44 29 13 9 11 6
126 148 157 160 160 146 112 82 139 179 218 224 218 271 214 232 275 286 266 312 16 42 72 137 139 141 183 189 231 223 216 214 217 215 220 218 230 247 236 216 184 164 141 131 120 106 81 66 48 25 33 19 29 22
135 150 155 159 157 134 123 153 193 200 228 265 265 259 245 264 251 263 278 310 307 252 138 134 171 181 206 208 200 209 227 207 190 219 229 224 236 237 279 230 174 164 159 150 147 136 113 90 71 36 37 34 35 30
132 144 155 154 72 130 111 112 100 130 241 250 271 251 230 228 259 265 247 99 47 5 342 199 206 207 183 205 197 199 211 166 139 30 307 289 265 273 238 208 191 178 156 153 156 145 139 136 148 80 51 39 31 21
121 126 176 214 18 56 91 116 192 201 238 245 246 202 260 307 267 215 225 156 136 211 222 210 220 234 200 210 208 221 207 170 204 190 213 261 269 226 225 212 190 180 169 178 173 168 174 186 183 164 85 30 13 11
117 115 117 113 35 40 65 228 175 290 209 257 307 211 259 249 235 225 152 164 218 216 197 188 209 216 231 218 226 224 236 216 232 246 254 242 260 231 245 239 190 192 200 191 186 189 198 202 205 216 239 289 318 331
99 87 63 52 43 45 278 14 337 266 248 266 326 278 248 248 230 120 232 216 242 221 205 204 217 223 214 239 240 235 240 235 226 236 248 249 250 253 251 242 218 198 196 212 210 206 206 206 218 231 249 275 300 315
64 55 44 44 118 264 326 248 204 255 268 263 229 275 258 234 291 183 243 242 245 291 189 229 216 228 23 224 212 230 249 242 245 257 255 242 233 254 246 245 237 235 231 231 209 207 212 219 229 244 258 277 292 303
71 310 133 261 192 231 231 242 222 217 240 200 200 267 264 46 237 248 234 270 300 304 297 305 209 200 215 240 263 253 258 244 219 227 256 238 232 236 244 242 240 233 207 187 185 206 219 229 239 252 264 274 288 307
214 196 179 219 175 196 225 260 205 222 225 249 231 263 240 216 258 249 236 257 266 294 310 327 9 314 248 215 228 252 249 213 210 218 266 240 226 211 203 183 178 190 172 189 216 211 219 230 238 247 259 270 281 294
227 223 215 247 267 260 261 284 304 329 269 249 288 296 311 264 252 265 271 235 252 281 280 275 274 256 258 281 259 249 258 241 233 259 286 284 256 229 204 207 195 206 205 219 222 223 216 222 231 241 254 268 272 266
243 198 197 207 212 210 222 231 234 225 233 220 320 311 300 301 287 257 249 287 289 293 295 260 233 230 235 241 234 259 246 190 318 8 90 77 117 169 162 163 166 195 258 221 210 210 216 227 236 246 255 263 277 278
238 217 188 234 220 228 216 205 234 239 154 118 81 271 249 239 265 272 284 296 308 314 268 164 197 198 214 241 218 183 177 164 138 115 69 41 26 165 178 185 219 245 198 188 199 215 223 231 240 253 266 274 283 280
231 183 226 225 208 217 234 187 197 147 164 185 193 286 267 246 272 302 289 321 336 269 187 154 145 162 162 158 166 182 199 211 206 173 161 207 235 239 220 224 357 44 293 227 227 231 242 244 252 253 250 251 256 248
195 176 225 226 253 228 215 161 165 143 173 207 212 223 267 300 314 318 359 10 27 96 107 104 110 123 126 137 141 131 281 224 237 250 251 245 249 199 200 196 196 199 210 194 194 201 203 206 218 224 223 234 246 241
197 216 244 253 200 114 128 185 144 202 201 216 227 220 297 306 317 310 6 20 45 53 63 86 109 128 145 187 181 291 295 292 309 325 312 283 257 225 203 187 192 209 204 198 209 187 173 145 25 333 341 353 61 18
206 209 229 260 162 154 163 131 219 328 276 344 341 333 293 335 352 290 8 23 37 37 29 41 69 95 107 105 100 93 73 59 48 33 25 26 55 206 196 172 173 237 195 160 145 109 61 9 332 313 290 229 160 181